Bigfork, MN

9:29 AM CDT on April 23, 2018 (GMT -0500)
Bigfork Municipal

Weather History for KFOZ - March, 2013

Change the Weather History Date:

Sunday, March 17, 2013

  Actual Average (KGPZ) Record (KGPZ)
Temperature  
Mean Temperature -1 °F -  
Max Temperature 23 °F 38 °F 69 °F (2012)
Min Temperature -25 °F 12 °F -20 °F (1941)
Degree Days  
Heating Degree Days 66    
Moisture  
Dew Point -11 °F    
Average Humidity 54    
Maximum Humidity 77    
Minimum Humidity 33    
Precipitation  
Precipitation 0.00 in - - ()
Sea Level Pressure  
Sea Level Pressure 30.06 in    
Wind  
Wind Speed 4 mph (SSE)    
Max Wind Speed 16 mph    
Max Gust Speed 23 mph    
Visibility 10 miles    
Events Snow    
Averages and records for this station are not official NWS values.
T = Trace of Precipitation, MM = Missing Value Source: NWS Daily Summary

Daily Weather History Graph

Daily Weather History Graph

Search for Another Location

Airport or City:

Astronomy

Mar. 17, 2013 Rise Set
Actual Time 7:23 AM CDT 7:23 PM CDT
Civil Twilight 6:52 AM CDT 7:54 PM CDT
Nautical Twilight 6:16 AM CDT 8:30 PM CDT
Astronomical Twilight 5:39 AM CDT 9:07 PM CDT
Moon 10:12 AM CDT (3/17) 12:55 AM CDT (3/17)
Length of Visible Light 13h 01m
Length of Day
12h 00m
Waxing Crescent, 31% of the Moon is Illuminated
Mar 17
Waxing Crescent
Mar 19
First Quarter
Mar 27
Full
Apr 2
Last Quarter
Apr 10
New

Hourly Weather History & Observations

Time (CDT) Temp. Windchill Dew Point Humidity Pressure Visibility Wind Dir Wind Speed Gust Speed Precip Events Conditions
12:13 AM -9.4 °F - -14.8 °F 77% 30.22 in 10.0 mi Calm Calm - N/A   Clear
12:33 AM -11.2 °F - -16.6 °F 77% 30.22 in 10.0 mi Calm Calm - N/A   Clear
12:53 AM -14.8 °F - -20.2 °F 77% 30.23 in 10.0 mi Calm Calm - N/A   Clear
1:13 AM -14.8 °F - -20.2 °F 77% 30.23 in 10.0 mi Calm Calm - N/A   Clear
1:33 AM -14.8 °F - -20.2 °F 77% 30.23 in 10.0 mi Calm Calm - N/A   Clear
1:53 AM -16.6 °F - -23.8 °F 70% 30.23 in 10.0 mi Calm Calm - N/A   Clear
2:13 AM -16.6 °F - -23.8 °F 70% 30.24 in 10.0 mi Calm Calm - N/A   Clear
2:33 AM -18.4 °F - -23.8 °F 76% 30.23 in 10.0 mi Calm Calm - N/A   Clear
2:53 AM -18.4 °F - -25.6 °F 70% 30.23 in 10.0 mi Calm Calm - N/A   Clear
3:13 AM -20.2 °F - -27.4 °F 69% 30.23 in 10.0 mi Calm Calm - N/A   Clear
3:33 AM -20.2 °F - -27.4 °F 69% 30.23 in 10.0 mi Calm Calm - N/A   Clear
3:53 AM -20.2 °F - -27.4 °F 69% 30.23 in 10.0 mi Calm Calm - N/A   Clear
4:13 AM -22.0 °F - -27.4 °F 76% 30.22 in 7.0 mi Calm Calm - N/A   Clear
4:33 AM -22.0 °F - -29.2 °F 69% 30.21 in 10.0 mi Calm Calm - N/A   Clear
4:53 AM -23.8 °F - -29.2 °F 76% 30.21 in 10.0 mi Calm Calm - N/A   Clear
5:13 AM -23.8 °F - -31.0 °F 69% 30.20 in 10.0 mi Calm Calm - N/A   Clear
5:33 AM -25.6 °F - -32.8 °F 69% 30.21 in 10.0 mi Calm Calm - N/A   Clear
5:53 AM -23.8 °F - -31.0 °F 69% 30.21 in 10.0 mi Calm Calm - N/A   Clear
6:13 AM -23.8 °F - -31.0 °F 69% 30.20 in 10.0 mi Calm Calm - N/A   Clear
6:53 AM -25.6 °F - -32.8 °F 69% 30.20 in 10.0 mi Calm Calm - N/A   Clear
7:13 AM -25.6 °F - -32.8 °F 69% 30.19 in 10.0 mi Calm Calm - N/A   Clear
7:33 AM -25.6 °F - -32.8 °F 69% 30.19 in 10.0 mi Calm Calm - N/A   Clear
7:53 AM -23.8 °F - -32.8 °F 63% 30.19 in 10.0 mi Calm Calm - N/A   Clear
8:13 AM -22.0 °F - -27.4 °F 76% 30.18 in 10.0 mi Calm Calm - N/A   Clear
8:33 AM -18.4 °F - -23.8 °F 76% 30.17 in 10.0 mi Calm Calm - N/A   Clear
8:53 AM -13.0 °F - -18.4 °F 77% 30.16 in 10.0 mi Calm Calm - N/A   Clear
9:13 AM -7.6 °F - -13.0 °F 77% 30.16 in 10.0 mi Calm Calm - N/A   Clear
9:33 AM -5.8 °F - -11.2 °F 77% 30.16 in 10.0 mi Calm Calm - N/A   Clear
9:53 AM 1.4 °F -12.5 °F -7.6 °F 66% 30.15 in 10.0 mi SSE 8.1 mph - N/A   Clear
10:13 AM 5.0 °F -8.1 °F -7.6 °F 56% 30.14 in 10.0 mi SSE 8.1 mph - N/A   Clear
10:33 AM 6.8 °F -4.8 °F -7.6 °F 52% 30.15 in 10.0 mi SSE 6.9 mph - N/A   Clear
10:53 AM 8.6 °F -3.7 °F -7.6 °F 48% 30.14 in 10.0 mi SSE 8.1 mph 16.1 mph N/A   Clear
11:13 AM 10.4 °F -3.3 °F -7.6 °F 44% 30.12 in 10.0 mi SSE 10.4 mph - N/A   Clear
11:33 AM 10.4 °F -3.3 °F -5.8 °F 48% 30.12 in 10.0 mi SE 10.4 mph 16.1 mph N/A   Scattered Clouds
11:53 AM 12.2 °F -1.0 °F -5.8 °F 45% 30.11 in 10.0 mi SSE 10.4 mph - N/A   Scattered Clouds
12:13 PM 14.0 °F 2.0 °F -5.8 °F 41% 30.10 in 10.0 mi SE 9.2 mph - N/A   Scattered Clouds
12:33 PM 14.0 °F 0.5 °F -5.8 °F 41% 30.10 in 10.0 mi SSE 11.5 mph 17.3 mph N/A   Mostly Cloudy
12:53 PM 15.8 °F 4.2 °F -2.2 °F 45% 30.08 in 10.0 mi South 9.2 mph - N/A   Mostly Cloudy
1:13 PM 17.6 °F 7.3 °F -4.0 °F 38% 30.07 in 10.0 mi SE 8.1 mph - N/A   Mostly Cloudy
1:33 PM 17.6 °F 6.4 °F -4.0 °F 38% 30.07 in 10.0 mi SSE 9.2 mph 18.4 mph N/A   Scattered Clouds
1:53 PM 17.6 °F 5.7 °F -4.0 °F 38% 30.06 in 10.0 mi SE 10.4 mph - N/A   Clear
2:13 PM 19.4 °F 7.2 °F -2.2 °F 39% 30.05 in 10.0 mi SE 11.5 mph - N/A   Clear
2:33 PM 19.4 °F 7.2 °F -2.2 °F 39% 30.03 in 10.0 mi South 11.5 mph - N/A   Clear
2:53 PM 19.4 °F 6.6 °F -2.2 °F 39% 30.01 in 10.0 mi SSE 12.7 mph 19.6 mph N/A   Clear
3:13 PM 21.2 °F 10.1 °F -2.2 °F 36% 30.00 in 10.0 mi SE 10.4 mph 17.3 mph N/A   Clear
3:33 PM 21.2 °F 8.9 °F -2.2 °F 36% 29.99 in 10.0 mi SSE 12.7 mph - N/A   Clear
3:53 PM 21.2 °F 12.6 °F -0.4 °F 39% 29.97 in 10.0 mi SSE 6.9 mph 16.1 mph N/A   Clear
4:13 PM 21.2 °F 7.3 °F -2.2 °F 36% 29.96 in 10.0 mi South 16.1 mph - N/A   Clear
4:33 PM 23.0 °F 11.1 °F -2.2 °F 33% 29.96 in 10.0 mi South 12.7 mph 17.3 mph N/A   Mostly Cloudy
4:53 PM 21.2 °F 9.5 °F -0.4 °F 39% 29.95 in 10.0 mi South 11.5 mph 17.3 mph N/A   Mostly Cloudy
5:13 PM 23.0 °F 13.1 °F -0.4 °F 36% 29.95 in 10.0 mi SE 9.2 mph - N/A   Mostly Cloudy
5:33 PM 23.0 °F 13.1 °F -0.4 °F 36% 29.94 in 10.0 mi SSE 9.2 mph - N/A   Mostly Cloudy
5:53 PM 23.0 °F 14.7 °F -0.4 °F 36% 29.93 in 10.0 mi SE 6.9 mph - N/A   Mostly Cloudy
6:13 PM 23.0 °F 14.7 °F -0.4 °F 36% 29.92 in 10.0 mi SE 6.9 mph - N/A   Scattered Clouds
6:33 PM 23.0 °F 13.9 °F -0.4 °F 36% 29.91 in 10.0 mi SE 8.1 mph - N/A   Scattered Clouds
6:54 PM 23.0 °F 14.7 °F -2.2 °F 33% 29.90 in 10.0 mi SSE 6.9 mph - N/A   Mostly Cloudy
7:13 PM 23.0 °F 14.7 °F -2.2 °F 33% 29.89 in 10.0 mi SE 6.9 mph - N/A   Mostly Cloudy
7:33 PM 21.2 °F 11.7 °F -0.4 °F 39% 29.88 in 10.0 mi SE 8.1 mph - N/A   Mostly Cloudy
7:53 PM 23.0 °F 13.9 °F -0.4 °F 36% 29.87 in 10.0 mi SE 8.1 mph - N/A   Overcast
8:13 PM 23.0 °F 14.7 °F -0.4 °F 36% 29.87 in 10.0 mi SE 6.9 mph - N/A   Overcast
8:33 PM 21.2 °F 11.7 °F 1.4 °F 42% 29.86 in 10.0 mi ESE 8.1 mph - N/A   Overcast
9:13 PM 21.2 °F 10.1 °F 3.2 °F 46% 29.84 in 10.0 mi SE 10.4 mph 18.4 mph N/A   Overcast
9:33 PM 21.2 °F 10.9 °F 1.4 °F 42% 29.84 in 10.0 mi SE 9.2 mph - N/A   Overcast
9:53 PM 21.2 °F 10.1 °F 3.2 °F 46% 29.83 in 10.0 mi SE 10.4 mph 18.4 mph N/A   Overcast
10:13 PM 21.2 °F 8.9 °F 3.2 °F 46% 29.83 in 10.0 mi SSE 12.7 mph 16.1 mph N/A   Overcast
10:33 PM 21.2 °F 8.3 °F 5.0 °F 50% 29.82 in 10.0 mi SSE 13.8 mph 23.0 mph N/A   Mostly Cloudy
10:53 PM 21.2 °F 10.9 °F 6.8 °F 54% 29.82 in 10.0 mi SSE 9.2 mph 18.4 mph N/A   Scattered Clouds
11:13 PM 21.2 °F 7.8 °F 6.8 °F 54% 29.81 in 10.0 mi SSE 15.0 mph 20.7 mph N/A   Scattered Clouds
11:33 PM 21.2 °F 8.9 °F 6.8 °F 54% 29.80 in 10.0 mi SSE 12.7 mph 20.7 mph N/A Snow Light Snow
11:53 PM 21.2 °F 11.7 °F 6.8 °F 54% 29.79 in 10.0 mi SSE 8.1 mph 18.4 mph N/A   Scattered Clouds